Location: Couloutre
(47.4081°N, 3.2259°E)
Time: 02:33:15
(UTC+00:00)

Cosmos 2227 Rocket - Pass Details

Date: 27 February 2020
Orbit: 839 x 845 km, 71.0° (Epoch: 03 April)

Event Time Altitude Azimuth Distance (km) Brightness Sun altitude
Rises 18:13:18 0° 338° (NNW) 3,406 5.6 -8.4°
Reaches altitude 10° 18:16:30 10° 356° (N) 2,469 4.7 -8.9°
Maximum altitude 18:20:30 19° 41° (NE) 1,895 3.7 -9.6°
Enters shadow 18:23:42 13° 80° (E) 2,280 3.8 -10.2°
